| time (UTC) | temp F | wind direction | speed knots | gust knots | rain 1hr in | rain 24hr in | rain mn in | humidity % | barometer mb |
| 20260904203019 | 95 | 203 | 7.8 | 13.9 | 0.00 | 0.00 | 0.00 | 57 | 993.8 |
| 20260904200018 | 95 | 203 | 7.0 | 14.8 | 0.00 | 0.00 | 0.00 | 57 | 994.2 |
| 20260904193018 | 95 | 203 | 7.0 | 13.0 | 0.00 | 0.00 | 0.00 | 56 | 994.6 |
| 20260904190016 | 94 | 225 | 7.0 | 13.0 | 0.00 | 0.00 | 0.00 | 59 | 994.8 |
| 20260904183018 | 93 | 225 | 7.0 | 15.6 | 0.00 | 0.00 | 0.00 | 58 | 995.1 |
| 20260904180018 | 93 | 225 | 7.0 | 12.2 | 0.00 | 0.00 | 0.00 | 59 | 995.6 |
| 20260904173018 | 93 | 225 | 5.2 | 12.2 | 0.00 | 0.00 | 0.00 | 60 | 995.8 |
| 20260904170018 | 92 | 248 | 3.5 | 10.4 | 0.00 | 0.00 | 0.00 | 62 | 995.8 |
| 20260904163038 | 91 | 248 | 4.3 | 11.3 | 0.00 | 0.00 | 0.00 | 63 | 995.7 |
| 20260904160018 | 90 | 225 | 4.3 | 11.3 | 0.00 | 0.00 | 0.00 | 65 | 995.7 |
| 20260904153016 | 89 | 225 | 4.3 | 9.6 | 0.00 | 0.00 | 0.00 | 67 | 995.6 |
| 20260904150039 | 87 | 225 | 3.5 | 7.8 | 0.00 | 0.00 | 0.00 | 70 | 995.5 |
| 20260904143019 | 85 | 225 | 3.5 | 7.8 | 0.00 | 0.00 | 0.00 | 72 | 995.2 |
| 20260904140020 | 82 | 225 | 5.2 | 8.7 | 0.00 | 0.00 | 0.00 | 77 | 994.8 |
| 20260904133018 | 80 | 225 | 6.1 | 10.4 | 0.00 | 0.00 | 0.00 | 78 | 994.8 |
| 20260904130018 | 79 | 225 | 5.2 | 8.7 | 0.00 | 0.00 | 0.00 | 80 | 994.8 |
| 20260904123018 | 78 | 225 | 4.3 | 8.7 | 0.00 | 0.00 | 0.00 | 82 | 994.4 |
| 20260904120018 | 77 | 203 | 5.2 | 7.8 | 0.00 | 0.00 | 0.00 | 83 | 994.1 |
| 20260904113018 | 76 | 203 | 4.3 | 7.0 | 0.00 | 0.00 | 0.00 | 84 | 993.9 |
| 20260904110018 | 76 | 180 | 4.3 | 7.0 | 0.00 | 0.00 | 0.00 | 84 | 993.7 |
| 20260904103018 | 76 | 180 | 4.3 | 7.0 | 0.00 | 0.00 | 0.00 | 84 | 993.8 |
| 20260904100036 | 77 | 158 | 4.3 | 7.8 | 0.00 | 0.00 | 0.00 | 84 | 993.7 |
| 20260904093016 | 77 | 158 | 4.3 | 7.8 | 0.00 | 0.00 | 0.00 | 82 | 993.3 |
| 20260904090016 | 77 | 158 | 4.3 | 7.0 | 0.00 | 0.00 | 0.00 | 82 | 993.1 |
| 20260904083016 | 78 | 158 | 4.3 | 6.1 | 0.00 | 0.00 | 0.00 | 82 | 993.1 |
| 20260904080036 | 79 | 158 | 3.5 | 7.0 | 0.00 | 0.00 | 0.00 | 80 | 993.1 |
| 20260904073018 | 78 | 135 | 3.5 | 5.2 | 0.00 | 0.00 | 0.00 | 83 | 993.2 |
| 20260904070016 | 79 | 158 | 3.5 | 6.1 | 0.00 | 0.00 | 0.00 | 82 | 993.4 |
| 20260904063016 | 79 | 158 | 3.5 | 6.1 | 0.00 | 0.00 | 0.00 | 82 | 993.6 |
| 20260904060056 | 79 | 135 | 3.5 | 6.1 | 0.00 | 0.00 | 0.00 | 82 | 993.7 |
| 20260904053056 | 80 | 135 | 3.5 | 5.2 | 0.00 | 0.00 | 0.00 | 81 | 993.9 |
| 20260904050016 | 80 | 135 | 3.5 | 5.2 | 0.00 | 0.00 | 0.00 | 81 | 993.7 |
| 20260904043018 | 80 | 135 | 3.5 | 4.3 | 0.00 | 0.00 | 0.00 | 82 | 993.5 |
| 20260904040018 | 81 | 158 | 3.5 | 6.1 | 0.00 | 0.00 | 0.00 | 81 | 993.5 |
| 20260904033018 | 82 | 158 | 3.5 | 6.1 | 0.00 | 0.00 | 0.00 | 80 | 993.4 |
| 20260904030018 | 83 | 158 | 2.6 | 6.1 | 0.00 | 0.00 | 0.00 | 79 | 993.4 |
| 20260904023018 | 83 | 180 | 3.5 | 6.1 | 0.00 | 0.00 | 0.00 | 78 | 992.9 |
| 20260904020038 | 85 | 180 | 3.5 | 7.8 | 0.00 | 0.00 | 0.00 | 77 | 992.7 |
| 20260904013018 | 85 | 180 | 3.5 | 6.1 | 0.00 | 0.00 | 0.00 | 76 | 992.6 |
| 20260904010018 | 86 | 158 | 2.6 | 5.2 | 0.00 | 0.00 | 0.00 | 74 | 992.4 |
| 20260904003016 | 88 | 158 | 3.5 | 6.1 | 0.00 | 0.00 | 0.00 | 72 | 992.3 |
| 20260904000016 | 89 | 158 | 3.5 | 7.8 | 0.00 | 0.00 | 0.00 | 70 | 992.3 |
| 20260903233016 | 91 | 158 | 4.3 | 7.8 | 0.00 | 0.00 | 0.00 | 68 | 992.4 |
| 20260903230017 | 93 | 158 | 3.5 | 7.0 | 0.00 | 0.00 | 0.00 | 65 | 992.7 |
| 20260903223016 | 94 | 158 | 4.3 | 8.7 | 0.00 | 0.00 | 0.00 | 62 | 992.8 |
| 20260903220036 | 95 | 180 | 4.3 | 9.6 | 0.00 | 0.00 | 0.00 | 61 | 993.1 |
| 20260903213016 | 95 | 225 | 5.2 | 7.8 | 0.00 | 0.00 | 0.00 | 59 | 993.4 |
| 20260903210016 | 96 | 203 | 4.3 | 7.8 | 0.00 | 0.00 | 0.00 | 57 | 993.4 |